• In Deutschland
  • Länderverzeichnis
  • Für 7 Tage
  • Wassertemperatur
  • Satellitenkarten
  • Wetterkarte
  • Widgets
  • user-avatar
    Anmelden

    Stündliche Wetter Belize

    Heute, 28 Mai, Montag

    Zeit Temperatur Niederschläge Wind Luftdruck Luftfeuchtigkeit
    00:00 +27°C° 0,7 mm 3 m/S 756 mmHg 94%
    01:00 +26°C° 0,3 mm 3 m/S 756 mmHg 95%
    02:00 +26°C° 0,3 mm 3 m/S 756 mmHg 95%
    03:00 +26°C° 0,3 mm 2 m/S 756 mmHg 95%
    04:00 +26°C° 0,1 mm 2 m/S 756 mmHg 95%
    05:00 +26°C° 0,1 mm 2 m/S 756 mmHg 95%
    06:00 +26°C° 0,1 mm 1 m/S 756 mmHg 94%
    07:00 +29°C° 0 mm 1 m/S 756 mmHg 80%
    08:00 +32°C° 0 mm 1 m/S 757 mmHg 66%
    09:00 +35°C° 0 mm 1 m/S 757 mmHg 52%
    10:00 +37°C° 0 mm 1 m/S 757 mmHg 47%
    11:00 +39°C° 0 mm 1 m/S 756 mmHg 41%
    12:00 +41°C° 0 mm 2 m/S 756 mmHg 36%
    13:00 +39°C° 0 mm 2 m/S 755 mmHg 40%
    14:00 +38°C° 0 mm 3 m/S 755 mmHg 44%
    15:00 +36°C° 0 mm 4 m/S 754 mmHg 48%
    16:00 +34°C° 0,1 mm 4 m/S 754 mmHg 59%
    17:00 +32°C° 0,1 mm 4 m/S 754 mmHg 69%
    18:00 +30°C° 0,1 mm 4 m/S 755 mmHg 79%
    19:00 +29°C° 0,5 mm 4 m/S 755 mmHg 80%
    20:00 +29°C° 0,5 mm 4 m/S 756 mmHg 81%
    21:00 +28°C° 0,5 mm 4 m/S 756 mmHg 82%
    22:00 +28°C° 0,1 mm 4 m/S 756 mmHg 86%
    23:00 +27°C° 0,1 mm 4 m/S 756 mmHg 89%

    Morgen, 29 Mai, Dienstag

    Zeit Temperatur Niederschläge Wind Luftdruck Luftfeuchtigkeit
    00:00 +27°C° 0,1 mm 3 m/S 756 mmHg 92%
    01:00 +27°C° 0,2 mm 3 m/S 756 mmHg 94%
    02:00 +26°C° 0,2 mm 2 m/S 755 mmHg 95%
    03:00 +26°C° 0,2 mm 1 m/S 755 mmHg 96%
    04:00 +26°C° 0 mm 1 m/S 755 mmHg 95%
    05:00 +26°C° 0 mm 1 m/S 755 mmHg 94%
    06:00 +26°C° 0 mm 1 m/S 755 mmHg 94%
    07:00 +27°C° 0 mm 0 m/S 756 mmHg 79%
    08:00 +30°C° 0 mm 0 m/S 756 mmHg 65%
    09:00 +33°C° 0 mm 0 m/S 756 mmHg 51%
    10:00 +37°C° 0 mm 1 m/S 756 mmHg 46%
    11:00 +39°C° 0 mm 1 m/S 756 mmHg 41%
    12:00 +40°C° 0 mm 2 m/S 756 mmHg 36%
    13:00 +39°C° 0 mm 2 m/S 755 mmHg 38%
    14:00 +39°C° 0 mm 3 m/S 754 mmHg 39%
    15:00 +38°C° 0 mm 3 m/S 754 mmHg 41%
    16:00 +37°C° 0 mm 3 m/S 754 mmHg 48%
    17:00 +35°C° 0 mm 3 m/S 754 mmHg 55%
    18:00 +33°C° 0 mm 3 m/S 754 mmHg 62%
    19:00 +31°C° 0 mm 3 m/S 755 mmHg 69%
    20:00 +29°C° 0 mm 4 m/S 755 mmHg 76%
    21:00 +28°C° 0 mm 4 m/S 756 mmHg 83%
    22:00 +28°C° 0,1 mm 4 m/S 756 mmHg 86%
    23:00 +28°C° 0,1 mm 4 m/S 756 mmHg 88%

    übermorgen, 30 Mai, Mittwoch

    Zeit Temperatur Niederschläge Wind Luftdruck Luftfeuchtigkeit
    00:00 +28°C° 0,1 mm 4 m/S 756 mmHg 91%
    01:00 +27°C° 0 mm 4 m/S 756 mmHg 92%
    02:00 +27°C° 0 mm 3 m/S 755 mmHg 94%
    03:00 +27°C° 0 mm 3 m/S 755 mmHg 95%
    04:00 +27°C° 0 mm 2 m/S 755 mmHg 94%
    05:00 +27°C° 0 mm 1 m/S 755 mmHg 94%
    06:00 +27°C° 0 mm 1 m/S 755 mmHg 93%
    07:00 +30°C° 0 mm 1 m/S 756 mmHg 78%
    08:00 +33°C° 0 mm 1 m/S 756 mmHg 63%
    09:00 +36°C° 0 mm 2 m/S 756 mmHg 48%
    10:00 +37°C° 0,5 mm 2 m/S 756 mmHg 44%
    11:00 +38°C° 0,5 mm 3 m/S 756 mmHg 41%
    12:00 +39°C° 0,5 mm 3 m/S 756 mmHg 37%
    13:00 +40°C° 0,2 mm 4 m/S 755 mmHg 39%
    14:00 +40°C° 0,2 mm 4 m/S 754 mmHg 40%
    15:00 +39°C° 0,2 mm 5 m/S 754 mmHg 42%
    16:00 +36°C° 0,3 mm 5 m/S 754 mmHg 52%
    17:00 +34°C° 0,3 mm 5 m/S 754 mmHg 62%
    18:00 +32°C° 0,3 mm 5 m/S 754 mmHg 72%
    19:00 +30°C° 0 mm 5 m/S 755 mmHg 78%
    20:00 +30°C° 0 mm 5 m/S 755 mmHg 84%
    21:00 +29°C° 0 mm 5 m/S 756 mmHg 90%
    22:00 +29°C° 0 mm 5 m/S 756 mmHg 91%
    23:00 +29°C° 0 mm 5 m/S 756 mmHg 91%

    31 Mai, Donnerstag

    Zeit Temperatur Niederschläge Wind Luftdruck Luftfeuchtigkeit
    00:00 +29°C° 0 mm 5 m/S 756 mmHg 91%
    01:00 +28°C° 0 mm 5 m/S 756 mmHg 92%
    02:00 +28°C° 0 mm 5 m/S 755 mmHg 93%
    03:00 +28°C° 0 mm 5 m/S 755 mmHg 94%
    04:00 +28°C° 0 mm 5 m/S 755 mmHg 94%
    05:00 +28°C° 0 mm 5 m/S 756 mmHg 95%
    06:00 +28°C° 0 mm 5 m/S 756 mmHg 95%
    07:00 +30°C° 0,1 mm 5 m/S 756 mmHg 89%
    08:00 +32°C° 0,1 mm 5 m/S 757 mmHg 82%
    09:00 +33°C° 0,1 mm 5 m/S 757 mmHg 76%
    10:00 +34°C° 0,1 mm 5 m/S 757 mmHg 69%
    11:00 +36°C° 0,1 mm 6 m/S 756 mmHg 63%
    12:00 +38°C° 0,1 mm 6 m/S 756 mmHg 56%
    13:00 +36°C° 0,1 mm 6 m/S 756 mmHg 57%
    14:00 +36°C° 0,1 mm 6 m/S 755 mmHg 59%
    15:00 +35°C° 0,1 mm 7 m/S 755 mmHg 60%
    16:00 +34°C° 0,7 mm 6 m/S 755 mmHg 66%
    17:00 +33°C° 0,7 mm 6 m/S 755 mmHg 71%
    18:00 +32°C° 0,7 mm 6 m/S 756 mmHg 77%
    19:00 +30°C° 0,9 mm 6 m/S 756 mmHg 79%
    20:00 +29°C° 0,9 mm 7 m/S 756 mmHg 81%
    21:00 +29°C° 0,9 mm 7 m/S 756 mmHg 83%
    22:00 +29°C° 1,5 mm 7 m/S 756 mmHg 84%
    23:00 +28°C° 1,5 mm 6 m/S 756 mmHg 85%

    1 Juni, Freitag

    Zeit Temperatur Niederschläge Wind Luftdruck Luftfeuchtigkeit
    00:00 +28°C° 1,5 mm 6 m/S 756 mmHg 87%
    01:00 +28°C° 1 mm 6 m/S 756 mmHg 86%
    02:00 +28°C° 0,9 mm 6 m/S 756 mmHg 86%
    03:00 +28°C° 0,9 mm 6 m/S 756 mmHg 85%
    04:00 +28°C° 0,9 mm 6 m/S 756 mmHg 84%
    05:00 +28°C° 0,9 mm 6 m/S 756 mmHg 83%
    06:00 +28°C° 0,9 mm 7 m/S 757 mmHg 81%
    07:00 +29°C° 1,3 mm 7 m/S 757 mmHg 79%
    08:00 +30°C° 1,3 mm 7 m/S 757 mmHg 76%
    09:00 +32°C° 1,3 mm 7 m/S 758 mmHg 74%
    10:00 +33°C° 1,9 mm 6 m/S 757 mmHg 69%
    11:00 +34°C° 1,9 mm 6 m/S 757 mmHg 65%
    12:00 +35°C° 1,9 mm 6 m/S 757 mmHg 60%
    13:00 +35°C° 1,3 mm 6 m/S 757 mmHg 59%
    14:00 +35°C° 1,3 mm 6 m/S 756 mmHg 57%
    15:00 +35°C° 1,3 mm 7 m/S 756 mmHg 56%
    16:00 +33°C° 1,7 mm 6 m/S 756 mmHg 61%
    17:00 +32°C° 1,7 mm 6 m/S 757 mmHg 67%
    18:00 +30°C° 1,7 mm 6 m/S 757 mmHg 73%
    19:00 +29°C° 0,3 mm 6 m/S 757 mmHg 75%
    20:00 +29°C° 0,3 mm 6 m/S 757 mmHg 77%
    21:00 +29°C° 0,3 mm 6 m/S 757 mmHg 80%
    22:00 +29°C° 0,5 mm 6 m/S 757 mmHg 80%
    23:00 +29°C° 0,5 mm 6 m/S 757 mmHg 80%

    2 Juni, Samstag

    Zeit Temperatur Niederschläge Wind Luftdruck Luftfeuchtigkeit
    00:00 +29°C° 0,5 mm 6 m/S 757 mmHg 81%
    01:00 +28°C° 1 mm 6 m/S 757 mmHg 83%
    02:00 +28°C° 1 mm 6 m/S 756 mmHg 86%
    03:00 +28°C° 1 mm 5 m/S 756 mmHg 88%
    04:00 +27°C° 1,2 mm 5 m/S 756 mmHg 90%
    05:00 +27°C° 1,2 mm 5 m/S 757 mmHg 92%
    06:00 +27°C° 1,2 mm 5 m/S 757 mmHg 95%
    07:00 +27°C° 1,2 mm 5 m/S 757 mmHg 94%
    08:00 +27°C° 1,2 mm 4 m/S 758 mmHg 94%
    09:00 +28°C° 1,2 mm 4 m/S 758 mmHg 93%
    10:00 +28°C° 0,2 mm 4 m/S 758 mmHg 87%
    11:00 +29°C° 0,2 mm 5 m/S 758 mmHg 80%
    12:00 +30°C° 0,2 mm 5 m/S 758 mmHg 73%
    13:00 +30°C° 0,1 mm 5 m/S 758 mmHg 71%
    14:00 +30°C° 0,1 mm 5 m/S 757 mmHg 69%
    15:00 +29°C° 0,1 mm 5 m/S 757 mmHg 67%
    16:00 +29°C° 0 mm 4 m/S 757 mmHg 71%
    17:00 +28°C° 0 mm 4 m/S 757 mmHg 76%
    18:00 +27°C° 0 mm 4 m/S 757 mmHg 80%
    19:00 +27°C° 0 mm 4 m/S 758 mmHg 82%
    20:00 +26°C° 0 mm 4 m/S 758 mmHg 83%
    21:00 +26°C° 0 mm 4 m/S 758 mmHg 84%
    22:00 +26°C° 0,1 mm 4 m/S 758 mmHg 87%
    23:00 +26°C° 0,1 mm 4 m/S 758 mmHg 90%
    Mehr zeigen